TimePDT,TemperatureF,Dew PointF,Humidity,Sea Level PressureIn,VisibilityMPH,Wind Direction,Wind SpeedMPH,Gust SpeedMPH,PrecipitationIn,Events,Conditions,WindDirDegrees,DateUTC
12:52 AM,79.0,57.9,48,29.80,10.0,NNW,8.1,-,N/A,,Clear,340,2012-10-08 07:52:00
1:52 AM,78.1,57.0,48,29.80,10.0,NNW,6.9,-,N/A,,Clear,330,2012-10-08 08:52:00
2:52 AM,78.1,57.0,48,29.80,10.0,NNW,9.2,-,N/A,,Clear,330,2012-10-08 09:52:00
3:52 AM,77.0,55.9,48,29.82,10.0,NW,8.1,-,N/A,,Clear,320,2012-10-08 10:52:00
4:52 AM,77.0,55.0,47,29.80,10.0,NW,10.4,-,N/A,,Clear,320,2012-10-08 11:52:00
5:52 AM,77.0,55.0,47,29.81,10.0,NW,9.2,-,N/A,,Clear,310,2012-10-08 12:52:00
6:52 AM,75.9,54.0,46,29.83,10.0,NW,10.4,-,N/A,,Clear,310,2012-10-08 13:52:00
7:52 AM,78.1,54.0,43,29.84,10.0,NW,8.1,-,N/A,,Clear,310,2012-10-08 14:52:00
8:52 AM,81.0,55.0,41,29.85,10.0,NW,10.4,-,N/A,,Clear,310,2012-10-08 15:52:00
9:52 AM,84.0,53.1,34,29.86,10.0,NW,3.5,-,N/A,,Clear,310,2012-10-08 16:52:00
10:52 AM,89.1,51.1,27,29.84,10.0,Calm,Calm,-,N/A,,Clear,0,2012-10-08 17:52:00
11:52 AM,90.0,53.1,28,29.83,10.0,Variable,3.5,-,N/A,,Clear,0,2012-10-08 18:52:00
12:52 PM,91.9,55.0,29,29.81,10.0,SSE,9.2,-,N/A,,Clear,160,2012-10-08 19:52:00
1:52 PM,93.9,52.0,24,29.78,10.0,SE,5.8,-,N/A,,Clear,140,2012-10-08 20:52:00
3:52 PM,93.9,48.0,21,29.76,10.0,SSE,6.9,-,N/A,,Clear,150,2012-10-08 22:52:00
5:52 PM,89.1,44.1,21,29.75,10.0,South,3.5,-,N/A,,Clear,180,2012-10-09 00:52:00
6:52 PM,81.0,50.0,34,29.76,10.0,NW,3.5,-,N/A,,Clear,320,2012-10-09 01:52:00
7:52 PM,82.0,48.0,30,29.78,10.0,North,8.1,-,N/A,,Clear,360,2012-10-09 02:52:00
8:52 PM,84.0,55.0,37,29.80,10.0,NNW,13.8,-,N/A,,Clear,330,2012-10-09 03:52:00
9:52 PM,82.0,55.0,39,29.81,10.0,NW,9.2,-,N/A,,Clear,320,2012-10-09 04:52:00
10:52 PM,81.0,54.0,39,29.81,10.0,NW,11.5,-,N/A,,Clear,320,2012-10-09 05:52:00
11:52 PM,79.0,54.0,42,29.80,10.0,NW,9.2,-,N/A,,Clear,310,2012-10-09 06:52:00